Torna al catalogo

COSMOS 2251 DEB

AttivoLEO
NORAD 33757·DEBRIS·🇷🇺 Russia

Lanciato Jun 16, 1993 da Plesetsk Cosmodrome

Loading…

Prossimi Passaggi (prossime 24 ore)

TLE

AggiornatoSource: Space-Track

Epoca: Sep 14, 2026, 05:57 UTC

1 33757U 93036E   26257.24809866  .00000054  00000-0  29270-4 0  9994
2 33757  74.0376 180.6369 0013955 134.7194  17.4274 14.32637480919416

Traccia COSMOS 2251 DEB in tempo reale con AllMySat

Download on the App Store